Regional Weather Roundup
Issued by NWS Dallas/Fort Worth, TX

Current Version | Previous Version | Text Only | Print | Product List | Glossary On
Versions: 1 2 3 4 5 6 7 8 9 10 11 12 13 14 15 16 17 18 19 20 21 22 23 24 25 26 27 28 29 30 31 32 33 34 35 36 37 38 39 40 41 42 43 44 45 46 47 48 49 50
000
ASUS44 KFWD 190915
RWRFWD
NORTH TEXAS HOURLY WEATHER ROUNDUP
NATIONAL WEATHER SERVICE FORT WORTH TX
300 AM CST WED DEC 19 2018

NOTE: "FAIR" INDICATES FEW OR NO CLOUDS BELOW 12,000 FEET WITH NO
SIGNIFICANT WEATHER AND/OR OBSTRUCTIONS TO VISIBILITY.

TXZ118-119-191000-
DALLAS/FORT WORTH METROPLEX

CITY           SKY/WX    TMP DP  RH WIND       PRES   REMARKS
DFW AIRPORT    CLOUDY    52  48  86 SE7       29.90F
DALLAS LOVE    CLOUDY    53  51  93 S9        29.93S FOG
FTW MEACHAM    CLOUDY    52  51  97 S6        29.91F FOG
DAL-EXECUTIVE    N/A     51  50  96 S7        29.92F FOG
FTW-ALLIANCE   CLOUDY    52  49  89 S8        29.90F
FTW-NAS-JRB    CLOUDY    53  50  89 S7        29.91F FOG
FTW-SPINKS     CLOUDY    53  51  94 S7        29.92F FOG
ARLINGTON      CLOUDY    53  52  96 SE8       29.92F
GRAND PRAIRIE  CLOUDY    53  53 100 S6        29.93F
ADDISON        CLOUDY    51  50  93 S9        29.94F FOG
MESQUITE       CLOUDY    50  50  97 SE6       29.94S
LANCASTER      CLOUDY    51  50  95 SE6       29.94S FOG
$$

TXZ091>094-102>105-117-120-121-131>134-191000-
NORTH CENTRAL TEXAS

CITY           SKY/WX    TMP DP  RH WIND       PRES   REMARKS
SHRMAN/DENISON CLOUDY    49  47  92 S9        29.93S
GAINESVILLE    CLOUDY    48  46  90 S5        29.93F
BOWIE          CLOUDY    48  45  88 CALM      29.89F
BRIDGEPORT     MOCLDY    52  49  91 S8        29.91F
DECATUR        CLOUDY    50  49  94 S14       29.90F FOG
DENTON         CLOUDY    52  48  86 S9        29.90F
MCKINNEY       CLOUDY    50  49  96 SE8       29.92F
BONHAM         CLOUDY    46 N/A N/A E8        29.92F FOG
GREENVILLE     CLOUDY    52  50  93 SE9       29.94S FOG
ROCKWALL       CLOUDY    54  54 100 SE6       29.93F FOG
TERRELL        CLOUDY    52  50  93 SE7       29.94F
WAXAHACHIE     CLOUDY    51  51 100 CALM      29.94S FOG
CLEBURNE       FOG       52  52 100 S3        29.93F VSB 1/4
GRANBURY       CLOUDY    55  52  92 SE3       29.92F FOG
$$

TXZ083>090-098>101-113>116-127>130-139>142-154-155-191000-
WESTERN NORTH TEXAS

CITY           SKY/WX    TMP DP  RH WIND       PRES   REMARKS
WICHITA FALLS  MOCLDY    47  46  97 S6        29.88S
WF-KICKAPOO    MOCLDY    48  45  89 E6        29.91S
VERNON         FAIR      42  40  91 W6        29.88S WCI  39
ABILENE        CLOUDY    50  48  93 SW7       29.87F
ABILENE-DYESS  MOCLDY    48  46  93 SW9       29.90F
GRAHAM         FAIR      49  48  95 CALM      29.88F
BRECKENRIDGE   FAIR      48  46  91 S7        29.88F
CISCO          CLOUDY    45  43  93 SE6       29.89F
EASTLAND       CLOUDY    38  38  97 CALM      29.90F
RANGER         FOG       47  47 100 S8        29.90F VSB 3/4
MINERAL WELLS  CLOUDY    50  48  93 S6        29.89F FOG
STEPHENVILLE   CLOUDY    52  50  93 S7        29.94F
COMANCHE       FOG       48  48 100 S5        29.92F VSB 1/2
BROWNWOOD      CLOUDY    45  45 100 SE8       29.91F
COLEMAN        MOCLDY    43  41  95 CALM      29.89F
BRADY          CLOUDY    46  43  87 CALM      29.90F
$$

TXZ143>147-156>162-174-175-191000-
CENTRAL TEXAS

CITY           SKY/WX    TMP DP  RH WIND       PRES   REMARKS
WACO           CLOUDY    54  52  93 S7        29.91F FOG
WACO-MCGREGOR  CLOUDY    54  53  97 S6        29.92S
HILLSBORO      CLOUDY    53  53 100 S5        29.92S FOG
CORSICANA      CLOUDY    52  51  97 S5        29.94S FOG
MEXIA          CLOUDY    52  51  97 W5        29.91F
CAMERON        CLOUDY    54  53  98 CALM      29.91F FOG
TEMPLE         CLOUDY    54  54 100 S7        29.92F
KILLEEN        FOG       53  53  97 SE5       29.90F VSB 1/4
KILLEEN-SKYLRK LGT RAIN  54  54 100 S5        29.91F VSB 3/4
FORT HOOD      FOG       54  54 100 S3        29.87F VSB 7/8
GATESVILLE     FOG       54  54 100 CALM      29.93F VSB 1/2
HAMILTON       FOG       53  53 100 S7        29.92F VSB 1/4
LAMPASAS       FOG       53  53  99 CALM      29.90F VSB 1/2
$$

TXZ095>097-106>112-122>126-135>138-148>153-164>167-191000-
EAST TEXAS

CITY           SKY/WX    TMP DP  RH WIND       PRES   REMARKS
PARIS          FOG       45  45 100 SE9       29.97F VSB 1/4
SULPHUR SPRNGS LGT RAIN  49  48  97 SE9       29.96F
MOUNT PLEASANT CLOUDY    46  45  94 CALM      30.01R
GILMER         TSTM      47  47  99 SE5       29.99S
MINEOLA        RAIN      48  48 100 SE3       29.95F VSB 1
TYLER          LGT RAIN  51  49  92 SE10      29.94F
LONGVIEW       RAIN      48  48 100 NE3       29.99S VSB 3/4
MARSHALL       CLOUDY    46  45  93 CALM      30.02S VSB 1/4
ATHENS         RAIN      50  50 100 SE7       29.92F
PALESTINE      RAIN      51  51 100 E6        29.96F
JACKSONVILLE   RAIN      48  48 100 SE6       29.99F VSB 3/4
HENDERSON      CLOUDY    48  48  98 CALM      30.01R
CENTER         FOG       47  46  95 NW3       29.99  VSB 1/2
NACOGDOCHES    CLOUDY    48  48 100 N3        29.98S FOG
LUFKIN         CLOUDY    47  47 100 N6        29.95F FOG
$$

SUPPLEMENTAL OBSERVATIONS (NWS FORT WORTH AREA)

CITY           SKY/WX    TMP DP  RH WIND       PRES   REMARKS
DENISON DAM      N/A     46  45  93 SE6         N/A
CADDO GRASSLND   N/A     46  45  93 E5          N/A
CEDAR HILL       N/A     52  48  87 SE6         N/A
LBJ GRASSLAND    N/A     50  46  87 S9          N/A
MCGREGOR         N/A     54  50  87 S8          N/A
ATHENS           N/A     52  50  93 E8          N/A
$$

SUPPLEMENTAL OBSERVATIONS (NWS NORMAN AREA)

CITY           SKY/WX    TMP DP  RH WIND       PRES   REMARKS
MILLERS CREEK    N/A     46  43  87 S5          N/A
$$

SUPPLEMENTAL OBSERVATIONS (NWS SAN ANGELO AREA)

CITY           SKY/WX    TMP DP  RH WIND       PRES   REMARKS
HAMBY            N/A     46  43  87 S7          N/A
IVIE RESERVOIR   N/A     48  46  93 CALM        N/A
COLORADO BEND    N/A     52  50  93 SE2         N/A
$$

SUPPLEMENTAL OBSERVATIONS (NWS SHREVEPORT AREA)

CITY           SKY/WX    TMP DP  RH WIND       PRES   REMARKS
TEXARKANA        N/A     46  45  93 CALM        N/A
LINDEN           N/A     46  45  93 S2          N/A
LUFKIN           N/A     48  45  87 MISG        N/A
N SABINE NF      N/A     48  46  93 MISG        N/A
$$

SUPPLEMENTAL OBSERVATIONS ARE A COLLECTION OF AUTOMATED INSTRUMENTS
THAT ARE MAINTAINED BY A VARIETY OF FEDERAL AND STATE AGENCIES.
CERTAIN ELEMENTS...SUCH AS HUMIDITY VALUES AND SUSTAINED WIND
SPEEDS...MAY BE APPROXIMATED.




USA.gov is the U.S. government's official web portal to all federal, state and local government web resources and services.